,,Stat6,,Stat2,,Stat8,,Stat9,,Stat10,,Wind1,,Wind1,
time,status,PA1M_AVG,status,PR1M_SUM,status,RH1M_AVG,status,SR1M_AVG,status,TA1M_AVG,status,W1dAve1m,status,W1sAve1m,
2004-03-19, 00:00:01,VALID,918.098,VALID,0,VALID,98.8698,VALID,-0.0169808,VALID,20.1859,VALID,113,VALID,0,
2004-03-19, 00:01:00,VALID,918.091,VALID,0,VALID,98.7757,VALID,0.0169808,VALID,20.1628,VALID,113,VALID,0,
2004-03-19, 00:02:00,VALID,918.064,VALID,0,VALID,98.7808,VALID,-0.0169808,VALID,20.1501,VALID,113,VALID,0,
2004-03-19, 00:03:00,VALID,918.046,VALID,0,VALID,98.796,VALID,0,VALID,20.1638,VALID,113,VALID,0,
2004-03-19, 00:04:00,VALID,918.016,VALID,0,VALID,98.7401,VALID,0,VALID,20.167,VALID,113,VALID,0,
2004-03-19, 00:05:00,VALID,917.992,VALID,0,VALID,98.5494,VALID,0.0339617,VALID,20.1571,VALID,113,VALID,0.346839,
2004-03-19, 00:06:01,VALID,917.979,VALID,0,VALID,98.3879,VALID,0,VALID,20.1474,VALID,113,VALID,0.398624,
2004-03-19, 00:07:00,VALID,917.977,VALID,0,VALID,98.4082,VALID,0,VALID,20.1536,VALID,113,VALID,0.18388,
2004-03-19, 00:08:01,VALID,917.968,VALID,0,VALID,98.4425,VALID,0,VALID,20.1764,VALID,113,VALID,0,
2004-03-19, 00:09:01,VALID,917.965,VALID,0,VALID,98.3141,VALID,0,VALID,20.1568,VALID,113,VALID,0,
2004-03-19, 00:10:00,VALID,917.971,VALID,0,VALID,98.3879,VALID,0.0169808,VALID,20.1829,VALID,113,VALID,0,
2004-03-19, 00:11:00,VALID,917.967,VALID,0,VALID,98.4756,VALID,0,VALID,20.1953,VALID,113,VALID,0,
2004-03-19, 00:12:01,VALID,917.946,VALID,0,VALID,98.5519,VALID,0.0169808,VALID,20.238,VALID,113,VALID,0.273947,
2004-03-19, 00:13:01,VALID,917.911,VALID,0,VALID,98.5506,VALID,0.0169808,VALID,20.2669,VALID,113,VALID,0.0712426,
2004-03-19, 00:14:01,VALID,917.885,VALID,0,VALID,98.2772,VALID,0,VALID,20.2666,VALID,113,VALID,0,
2004-03-19, 00:15:01,VALID,917.848,VALID,0,VALID,98.1157,VALID,0,VALID,20.2567,VALID,113,VALID,0.000849185,
2004-03-19, 00:16:01,VALID,917.824,VALID,0,VALID,97.9631,VALID,-0.0849042,VALID,20.2684,VALID,113,VALID,0,
2004-03-19, 00:17:01,VALID,917.824,VALID,0,VALID,97.7622,VALID,-0.101885,VALID,20.2261,VALID,113,VALID,0,
2004-03-19, 00:18:01,VALID,917.821,VALID,0,VALID,97.8716,VALID,-0.0509425,VALID,20.2058,VALID,113,VALID,0,
2004-03-19, 00:19:01,VALID,917.832,VALID,0,VALID,98.0051,VALID,-0.0849042,VALID,20.2065,VALID,113,VALID,0,
2004-03-19, 00:20:01,VALID,917.837,VALID,0,VALID,98.0903,VALID,-0.0849042,VALID,20.2194,VALID,113,VALID,0,
2004-03-19, 00:21:01,VALID,917.828,VALID,0,VALID,98.1958,VALID,-0.0849042,VALID,20.2353,VALID,113,VALID,0,
2004-03-19, 00:22:01,VALID,917.813,VALID,0,VALID,98.2098,VALID,-0.0679233,VALID,20.255,VALID,113,VALID,0,
2004-03-19, 00:23:01,VALID,917.786,VALID,0,VALID,98.1691,VALID,-0.101885,VALID,20.2644,VALID,113,VALID,0,
2004-03-19, 00:24:01,VALID,917.78,VALID,0,VALID,98.0407,VALID,-0.101885,VALID,20.255,VALID,113,VALID,0,
2004-03-19, 00:25:01,VALID,917.783,VALID,0,VALID,97.8601,VALID,-0.101885,VALID,20.2423,VALID,113,VALID,0,
2004-03-19, 00:26:01,VALID,917.76,VALID,0,VALID,97.5779,VALID,-0.101885,VALID,20.2073,VALID,113,VALID,0,
2004-03-19, 00:27:01,VALID,917.745,VALID,0,VALID,97.6503,VALID,-0.101885,VALID,20.1807,VALID,113,VALID,0,
2004-03-19, 00:28:01,VALID,917.73,VALID,0,VALID,97.9453,VALID,-0.0679233,VALID,20.2065,VALID,108,VALID,0.144903,
2004-03-19, 00:29:01,VALID,917.706,VALID,0,VALID,97.9962,VALID,-0.101885,VALID,20.2192,VALID,105,VALID,0.0364583,
2004-03-19, 00:30:01,VALID,917.7,VALID,0,VALID,98.2569,VALID,-0.0849042,VALID,20.2582,VALID,105,VALID,0.00838415,
2004-03-19, 00:31:01,VALID,917.69,VALID,0,VALID,98.3357,VALID,-0.0169808,VALID,20.2867,VALID,105,VALID,0,
2004-03-19, 00:32:01,VALID,917.692,VALID,0,VALID,98.3701,VALID,-0.0679233,VALID,20.3061,VALID,105,VALID,0,
2004-03-19, 00:33:01,VALID,917.686,VALID,0,VALID,98.4171,VALID,-0.0169808,VALID,20.326,VALID,105,VALID,0,
2004-03-19, 00:34:01,VALID,917.687,VALID,0,VALID,98.44,VALID,-0.0339617,VALID,20.3158,VALID,105,VALID,0,
2004-03-19, 00:35:01,VALID,917.658,VALID,0,VALID,98.4247,VALID,-0.0679233,VALID,20.3225,VALID,105,VALID,0,
2004-03-19, 00:36:01,VALID,917.626,VALID,0,VALID,98.3561,VALID,-0.0339617,VALID,20.3094,VALID,105,VALID,0,
2004-03-19, 00:37:00,VALID,917.596,VALID,0,VALID,98.2073,VALID,-0.0509425,VALID,20.2768,VALID,105,VALID,0,
2004-03-19, 00:38:01,VALID,917.563,VALID,0,VALID,98.2454,VALID,-0.0509425,VALID,20.2805,VALID,105,VALID,0,
2004-03-19, 00:39:01,VALID,917.547,VALID,0,VALID,98.056,VALID,-0.0509425,VALID,20.2644,VALID,105,VALID,0,
2004-03-19, 00:40:01,VALID,917.526,VALID,0,VALID,97.911,VALID,-0.0679233,VALID,20.2192,VALID,105,VALID,0,
2004-03-19, 00:41:01,VALID,917.536,VALID,0,VALID,97.8322,VALID,-0.0849042,VALID,20.1966,VALID,105,VALID,0,
2004-03-19, 00:42:01,VALID,917.524,VALID,0,VALID,98.0712,VALID,-0.0509425,VALID,20.1899,VALID,105,VALID,0.227896,
2004-03-19, 00:43:01,VALID,917.497,VALID,0,VALID,98.4959,VALID,-0.0679233,VALID,20.2321,VALID,105,VALID,0.222556,
2004-03-19, 00:44:01,VALID,917.447,VALID,0,VALID,98.7388,VALID,-0.0339617,VALID,20.2415,VALID,105,VALID,0.0136265,
2004-03-19, 00:45:01,VALID,917.427,VALID,0,VALID,98.8774,VALID,-0.0509425,VALID,20.238,VALID,105,VALID,0,
2004-03-19, 00:46:01,VALID,917.406,VALID,0,VALID,98.8596,VALID,-0.0509425,VALID,20.2547,VALID,105,VALID,0,
2004-03-19, 00:47:01,VALID,917.392,VALID,0,VALID,98.7986,VALID,-0.0679233,VALID,20.2356,VALID,105,VALID,0,
2004-03-19, 00:48:01,VALID,917.352,VALID,0,VALID,98.9448,VALID,-0.0679233,VALID,20.2197,VALID,105,VALID,0.00585938,
2004-03-19, 00:49:01,VALID,917.319,VALID,0,VALID,98.955,VALID,-0.101885,VALID,20.2065,VALID,105,VALID,0.169271,
2004-03-19, 00:50:01,VALID,917.302,VALID,0,VALID,98.721,VALID,-0.0849042,VALID,20.1613,VALID,105,VALID,0.121094,
2004-03-19, 00:51:01,VALID,917.308,VALID,0,VALID,98.5811,VALID,-0.0509425,VALID,20.1225,VALID,105,VALID,0,
2004-03-19, 00:52:01,VALID,917.313,VALID,0,VALID,98.5951,VALID,-0.0679233,VALID,20.1196,VALID,105,VALID,0,
2004-03-19, 00:53:01,VALID,917.325,VALID,0,VALID,98.6371,VALID,-0.0509425,VALID,20.1158,VALID,105,VALID,0,
2004-03-19, 00:54:01,VALID,917.31,VALID,0,VALID,98.6256,VALID,-0.0509425,VALID,20.1091,VALID,105,VALID,0,
2004-03-19, 00:55:00,VALID,917.3,VALID,0,VALID,98.6295,VALID,-0.101885,VALID,20.1193,VALID,105,VALID,0,
2004-03-19, 00:56:00,VALID,917.265,VALID,0,VALID,98.6803,VALID,-0.0339617,VALID,20.1123,VALID,105,VALID,0,
2004-03-19, 00:57:00,VALID,917.24,VALID,0,VALID,98.7312,VALID,-0.0169808,VALID,20.1126,VALID,105,VALID,0.0414807,
2004-03-19, 00:58:00,VALID,917.236,VALID,0,VALID,98.7337,VALID,-0.0509425,VALID,20.1123,VALID,105,VALID,0.102706,
2004-03-19, 00:59:00,VALID,917.224,VALID,0,VALID,98.6918,VALID,-0.0169808,VALID,20.093,VALID,105,VALID,0.25744,
2004-03-19, 01:00:00,VALID,917.209,VALID,0,VALID,98.7236,VALID,-0.0169808,VALID,20.09,VALID,105,VALID,0.441211,
2004-03-19, 01:01:00,VALID,917.188,VALID,0,VALID,98.8113,VALID,-0.0169808,VALID,20.0999,VALID,128,VALID,0.642857,
2004-03-19, 01:02:00,VALID,917.179,VALID,0,VALID,98.8634,VALID,-0.0169808,VALID,20.0927,VALID,132,VALID,0.629836,
2004-03-19, 01:03:00,VALID,917.172,VALID,0,VALID,98.9423,VALID,-0.0509425,VALID,20.0999,VALID,140,VALID,0.623047,
2004-03-19, 01:04:00,VALID,917.168,VALID,0,VALID,99.0071,VALID,-0.0339617,VALID,20.1059,VALID,150,VALID,0.329215,
2004-03-19, 01:05:00,VALID,917.158,VALID,0,VALID,98.9677,VALID,-0.0339617,VALID,20.1126,VALID,150,VALID,0.15532,
2004-03-19, 01:06:00,VALID,917.141,VALID,0,VALID,99.0351,VALID,-0.0509425,VALID,20.1091,VALID,150,VALID,0.142805,
2004-03-19, 01:07:00,VALID,917.119,VALID,0,VALID,99.0758,VALID,-0.0509425,VALID,20.1091,VALID,150,VALID,0.154018,
2004-03-19, 01:08:00,VALID,917.098,VALID,0,VALID,99.0834,VALID,-0.0679233,VALID,20.1091,VALID,150,VALID,0.119531,
2004-03-19, 01:09:00,VALID,917.079,VALID,0,VALID,99.1292,VALID,-0.0679233,VALID,20.1094,VALID,150,VALID,0.167187,
2004-03-19, 01:10:00,VALID,917.066,VALID,0,VALID,99.1712,VALID,-0.0679233,VALID,20.1061,VALID,150,VALID,0.0128348,
2004-03-19, 01:11:00,VALID,917.03,VALID,0,VALID,99.1534,VALID,-0.0169808,VALID,20.09,VALID,150,VALID,0.0565044,
2004-03-19, 01:12:00,VALID,916.994,VALID,0,VALID,99.0364,VALID,-0.0339617,VALID,20.0771,VALID,150,VALID,0,
2004-03-19, 01:13:00,VALID,916.975,VALID,0,VALID,98.5977,VALID,-0.0679233,VALID,19.9867,VALID,150,VALID,0.0387153,
2004-03-19, 01:14:00,VALID,916.953,VALID,0,VALID,98.4082,VALID,-0.0339617,VALID,19.9057,VALID,150,VALID,0.00635901,
2004-03-19, 01:15:00,VALID,916.943,VALID,0,VALID,98.5799,VALID,-0.0509425,VALID,19.8965,VALID,150,VALID,0,
2004-03-19, 01:16:00,VALID,916.919,VALID,0,VALID,98.7375,VALID,0.0509425,VALID,19.9047,VALID,150,VALID,0,
2004-03-19, 01:17:00,VALID,916.921,VALID,0,VALID,98.8227,VALID,0.0339617,VALID,19.9138,VALID,150,VALID,0,
2004-03-19, 01:18:00,VALID,916.902,VALID,0,VALID,98.9499,VALID,0.0509425,VALID,19.9372,VALID,150,VALID,0,
2004-03-19, 01:19:00,VALID,916.889,VALID,0,VALID,98.9779,VALID,0.0509425,VALID,19.9397,VALID,150,VALID,0,
2004-03-19, 01:20:00,VALID,916.864,VALID,0,VALID,99.0046,VALID,0.0849042,VALID,19.9534,VALID,150,VALID,0,
2004-03-19, 01:21:00,VALID,916.838,VALID,0,VALID,99.0466,VALID,0.101885,VALID,19.9529,VALID,150,VALID,0,
2004-03-19, 01:22:00,VALID,916.846,VALID,0,VALID,99.0783,VALID,0.0679233,VALID,19.9494,VALID,150,VALID,0.147693,
2004-03-19, 01:23:00,VALID,916.844,VALID,0,VALID,98.9372,VALID,0.0679233,VALID,19.9337,VALID,150,VALID,0.25218,
2004-03-19, 01:24:00,VALID,916.831,VALID,0,VALID,98.8914,VALID,0.0509425,VALID,19.9109,VALID,149,VALID,0.466751,
2004-03-19, 01:25:00,VALID,916.812,VALID,0,VALID,98.9461,VALID,0.0679233,VALID,19.8848,VALID,137,VALID,0.565549,
2004-03-19, 01:26:00,VALID,916.8,VALID,0,VALID,99.1139,VALID,0.0169808,VALID,19.8985,VALID,127,VALID,0.713542,
2004-03-19, 01:27:00,VALID,916.764,VALID,0,VALID,99.2856,VALID,0.0509425,VALID,19.9149,VALID,125,VALID,0.814732,
2004-03-19, 01:28:00,VALID,916.758,VALID,0,VALID,99.3098,VALID,0.0849042,VALID,19.9211,VALID,124,VALID,0.789971,
2004-03-19, 01:29:00,VALID,916.746,VALID,0,VALID,99.2831,VALID,0.0679233,VALID,19.9042,VALID,128,VALID,0.892113,
2004-03-19, 01:30:00,VALID,916.718,VALID,0,VALID,99.339,VALID,0.0509425,VALID,19.9014,VALID,127,VALID,0.938616,
2004-03-19, 01:31:00,VALID,916.694,VALID,0,VALID,99.4522,VALID,0,VALID,19.8985,VALID,126,VALID,1.10065,
2004-03-19, 01:32:00,VALID,916.687,VALID,0,VALID,99.5094,VALID,0,VALID,19.9019,VALID,128,VALID,1.03368,
2004-03-19, 01:33:00,VALID,916.685,VALID,0,VALID,99.5603,VALID,0.0169808,VALID,19.8888,VALID,125,VALID,0.999818,
2004-03-19, 01:34:00,VALID,916.696,VALID,0,VALID,99.6048,VALID,0,VALID,19.8831,VALID,119,VALID,0.964472,
2004-03-19, 01:35:00,VALID,916.701,VALID,0,VALID,99.7294,VALID,0.0169808,VALID,19.8664,VALID,130,VALID,0.905705,
2004-03-19, 01:36:00,VALID,916.695,VALID,0,VALID,99.821,VALID,0,VALID,19.8823,VALID,125,VALID,0.575994,
2004-03-19, 01:37:00,VALID,916.694,VALID,0,VALID,99.7167,VALID,0.0169808,VALID,19.8473,VALID,108,VALID,0.195486,
2004-03-19, 01:38:00,VALID,916.703,VALID,0,VALID,99.7663,VALID,0.0169808,VALID,19.8217,VALID,87,VALID,0.425409,
2004-03-19, 01:39:00,VALID,916.693,VALID,0,VALID,99.8146,VALID,-0.0169808,VALID,19.8185,VALID,83,VALID,0.407924,
2004-03-19, 01:40:00,VALID,916.68,VALID,0,VALID,99.7256,VALID,0,VALID,19.7825,VALID,43,VALID,0.359961,
2004-03-19, 01:41:00,VALID,916.676,VALID,0,VALID,99.6213,VALID,0.0169808,VALID,19.731,VALID,43,VALID,0.10556,
2004-03-19, 01:42:00,VALID,916.69,VALID,0,VALID,99.5107,VALID,0.0169808,VALID,19.6662,VALID,43,VALID,0.172057,
2004-03-19, 01:43:00,VALID,916.691,VALID,0,VALID,99.5476,VALID,0,VALID,19.6406,VALID,43,VALID,0.0554497,
2004-03-19, 01:44:00,VALID,916.692,VALID,0,VALID,99.7497,VALID,0.0169808,VALID,19.653,VALID,43,VALID,0.12718,
2004-03-19, 01:45:00,VALID,916.675,VALID,0,VALID,99.8197,VALID,0,VALID,19.6727,VALID,74,VALID,0.30599,
2004-03-19, 01:46:00,VALID,916.674,VALID,0,VALID,99.9189,VALID,-0.0169808,VALID,19.7117,VALID,136,VALID,0.610899,
2004-03-19, 01:47:00,VALID,916.667,VALID,0,VALID,99.9456,VALID,0,VALID,19.734,VALID,132,VALID,0.350654,
2004-03-19, 01:48:00,VALID,916.651,VALID,0,VALID,99.9532,VALID,-0.0169808,VALID,19.7539,VALID,129,VALID,0.519804,
2004-03-19, 01:49:00,VALID,916.621,VALID,0,VALID,99.9781,VALID,0.0169808,VALID,19.7507,VALID,133,VALID,0.833333,
2004-03-19, 01:50:00,VALID,916.611,VALID,0,VALID,100,VALID,0.0169808,VALID,19.7757,VALID,132,VALID,0.973722,
2004-03-19, 01:51:00,VALID,916.589,VALID,0,VALID,100,VALID,0,VALID,19.7889,VALID,126,VALID,1.02902,
2004-03-19, 01:52:00,VALID,916.563,VALID,0,VALID,100,VALID,0.0169808,VALID,19.8247,VALID,129,VALID,1.02139,
2004-03-19, 01:53:00,VALID,916.548,VALID,0,VALID,100,VALID,0,VALID,19.8535,VALID,131,VALID,1.01065,
2004-03-19, 01:54:00,VALID,916.53,VALID,0,VALID,100,VALID,0,VALID,19.8699,VALID,131,VALID,0.696403,
2004-03-19, 01:55:00,VALID,916.517,VALID,0,VALID,100,VALID,-0.0169808,VALID,19.8798,VALID,128,VALID,0.649239,
2004-03-19, 01:56:00,VALID,916.521,VALID,0,VALID,100,VALID,0,VALID,19.8831,VALID,129,VALID,0.452009,
2004-03-19, 01:57:00,VALID,916.504,VALID,0,VALID,100,VALID,0,VALID,19.8535,VALID,119,VALID,0.111979,
2004-03-19, 01:58:00,VALID,916.485,VALID,0,VALID,100,VALID,-0.0169808,VALID,19.7859,VALID,119,VALID,0.0323933,
2004-03-19, 01:59:00,VALID,916.491,VALID,0,VALID,100,VALID,0,VALID,19.734,VALID,119,VALID,0,
2004-03-19, 02:00:00,VALID,916.49,VALID,0,VALID,100,VALID,0,VALID,19.7213,VALID,119,VALID,0,
2004-03-19, 02:01:00,VALID,916.484,VALID,0,VALID,100,VALID,0,VALID,19.7154,VALID,119,VALID,0,
2004-03-19, 02:02:00,VALID,916.474,VALID,0,VALID,100,VALID,0,VALID,19.7087,VALID,119,VALID,0,
2004-03-19, 02:03:00,VALID,916.458,VALID,0,VALID,100,VALID,0,VALID,19.7022,VALID,119,VALID,0,
2004-03-19, 02:04:00,VALID,916.457,VALID,0,VALID,100,VALID,0,VALID,19.699,VALID,119,VALID,0,
2004-03-19, 02:05:00,VALID,916.432,VALID,0,VALID,100,VALID,0,VALID,19.702,VALID,119,VALID,0,
2004-03-19, 02:06:00,VALID,916.417,VALID,0,VALID,100,VALID,0,VALID,19.7146,VALID,119,VALID,0,
2004-03-19, 02:07:00,VALID,916.41,VALID,0,VALID,100,VALID,0,VALID,19.7151,VALID,119,VALID,0,
2004-03-19, 02:08:00,VALID,916.405,VALID,0,VALID,99.999,VALID,-0.0339617,VALID,19.7251,VALID,119,VALID,0,
2004-03-19, 02:09:00,VALID,916.412,VALID,0,VALID,100,VALID,0,VALID,19.7549,VALID,119,VALID,0,
2004-03-19, 02:10:00,VALID,916.42,VALID,0,VALID,100,VALID,-0.0169808,VALID,19.7581,VALID,119,VALID,0,
2004-03-19, 02:11:00,VALID,916.419,VALID,0,VALID,100,VALID,0,VALID,19.7574,VALID,119,VALID,0,
2004-03-19, 02:12:00,VALID,916.399,VALID,0,VALID,100,VALID,0,VALID,19.7633,VALID,119,VALID,0,
2004-03-19, 02:13:00,VALID,916.383,VALID,0,VALID,99.9784,VALID,-0.0169808,VALID,19.7671,VALID,119,VALID,0,
2004-03-19, 02:14:00,VALID,916.368,VALID,0,VALID,99.9367,VALID,0,VALID,19.7507,VALID,119,VALID,0,
2004-03-19, 02:15:00,VALID,916.355,VALID,0,VALID,99.9748,VALID,-0.0169808,VALID,19.7869,VALID,119,VALID,0,
2004-03-19, 02:16:00,VALID,916.349,VALID,0,VALID,99.9837,VALID,0,VALID,19.7797,VALID,119,VALID,0,
2004-03-19, 02:17:00,VALID,916.34,VALID,0,VALID,99.9468,VALID,0,VALID,19.7926,VALID,119,VALID,0,
2004-03-19, 02:18:00,VALID,916.345,VALID,0,VALID,99.929,VALID,0,VALID,19.7859,VALID,119,VALID,0,
2004-03-19, 02:19:00,VALID,916.322,VALID,0,VALID,99.9418,VALID,0,VALID,19.7862,VALID,119,VALID,0,
2004-03-19, 02:20:00,VALID,916.32,VALID,0,VALID,99.9379,VALID,0,VALID,19.7859,VALID,119,VALID,0,
2004-03-19, 02:21:00,VALID,916.323,VALID,0,VALID,99.9151,VALID,0,VALID,19.7857,VALID,119,VALID,0,
2004-03-19, 02:22:00,VALID,916.317,VALID,0,VALID,99.9227,VALID,0,VALID,19.7959,VALID,119,VALID,0,
2004-03-19, 02:23:00,VALID,916.297,VALID,0,VALID,99.8655,VALID,0.0169808,VALID,19.7993,VALID,119,VALID,0,
2004-03-19, 02:24:00,VALID,916.306,VALID,0,VALID,99.6137,VALID,0,VALID,19.7442,VALID,119,VALID,0,
2004-03-19, 02:25:00,VALID,916.303,VALID,0,VALID,99.4942,VALID,0,VALID,19.6824,VALID,119,VALID,0,
2004-03-19, 02:26:00,VALID,916.3,VALID,0,VALID,99.6531,VALID,0,VALID,19.7246,VALID,119,VALID,0,
2004-03-19, 02:27:00,VALID,916.301,VALID,0,VALID,99.7561,VALID,-0.0169808,VALID,19.7767,VALID,119,VALID,0,
2004-03-19, 02:28:00,VALID,916.28,VALID,0,VALID,99.8362,VALID,0.0169808,VALID,19.812,VALID,119,VALID,0,
2004-03-19, 02:29:00,VALID,916.264,VALID,0,VALID,99.8667,VALID,0,VALID,19.8443,VALID,119,VALID,0,
2004-03-19, 02:30:00,VALID,916.237,VALID,0,VALID,99.8311,VALID,0,VALID,19.8669,VALID,119,VALID,0,
2004-03-19, 02:31:00,VALID,916.221,VALID,0,VALID,99.826,VALID,0,VALID,19.8831,VALID,119,VALID,0,
2004-03-19, 02:32:00,VALID,916.214,VALID,0,VALID,99.7548,VALID,0.0339617,VALID,19.89,VALID,119,VALID,0,
2004-03-19, 02:33:00,VALID,916.206,VALID,0,VALID,99.7587,VALID,0,VALID,19.8826,VALID,119,VALID,0,
2004-03-19, 02:34:00,VALID,916.197,VALID,0,VALID,99.6785,VALID,0.0339617,VALID,19.8962,VALID,119,VALID,0,
2004-03-19, 02:35:00,VALID,916.193,VALID,0,VALID,99.6607,VALID,0.0169808,VALID,19.8823,VALID,119,VALID,0.00820312,
2004-03-19, 02:36:00,VALID,916.188,VALID,0,VALID,99.69,VALID,0.0339617,VALID,19.892,VALID,119,VALID,0.174782,
2004-03-19, 02:37:00,VALID,916.194,VALID,0,VALID,99.6544,VALID,0.0339617,VALID,19.8952,VALID,119,VALID,0.224805,
2004-03-19, 02:38:00,VALID,916.189,VALID,0,VALID,99.6188,VALID,0,VALID,19.8917,VALID,119,VALID,0.179514,
2004-03-19, 02:39:00,VALID,916.192,VALID,0,VALID,99.6099,VALID,0.0169808,VALID,19.8987,VALID,119,VALID,0.156605,
2004-03-19, 02:40:00,VALID,916.181,VALID,0,VALID,99.5959,VALID,0,VALID,19.9086,VALID,119,VALID,0.246003,
2004-03-19, 02:41:00,VALID,916.173,VALID,0,VALID,99.6111,VALID,0.0169808,VALID,19.9019,VALID,119,VALID,0.521723,
2004-03-19, 02:42:00,VALID,916.167,VALID,0,VALID,99.6213,VALID,0,VALID,19.9218,VALID,119,VALID,0.425781,
2004-03-19, 02:43:00,VALID,916.16,VALID,0,VALID,99.6709,VALID,0,VALID,19.9345,VALID,120,VALID,0.314174,
2004-03-19, 02:44:00,VALID,916.15,VALID,0,VALID,99.7014,VALID,0,VALID,19.9541,VALID,120,VALID,0.370276,
2004-03-19, 02:45:00,VALID,916.128,VALID,0,VALID,99.7218,VALID,0.0169808,VALID,19.9663,VALID,120,VALID,0.196243,
2004-03-19, 02:46:00,VALID,916.109,VALID,0,VALID,99.7383,VALID,-0.101885,VALID,19.9839,VALID,120,VALID,0.200781,
2004-03-19, 02:47:00,VALID,916.099,VALID,0,VALID,99.7065,VALID,-0.0849042,VALID,20.0038,VALID,120,VALID,0.243862,
2004-03-19, 02:48:00,VALID,916.075,VALID,0,VALID,99.5908,VALID,-0.0849042,VALID,19.9941,VALID,120,VALID,0.0735829,
2004-03-19, 02:49:00,VALID,916.065,VALID,0,VALID,99.4344,VALID,-0.0849042,VALID,19.9618,VALID,120,VALID,0,
2004-03-19, 02:50:00,VALID,916.044,VALID,0,VALID,99.2907,VALID,-0.0849042,VALID,19.9164,VALID,120,VALID,0,
2004-03-19, 02:51:00,VALID,916.032,VALID,0,VALID,99.1648,VALID,-0.0849042,VALID,19.8908,VALID,120,VALID,0,
2004-03-19, 02:52:00,VALID,916.026,VALID,0,VALID,99.0529,VALID,-0.0849042,VALID,19.858,VALID,120,VALID,0,
2004-03-19, 02:53:00,VALID,916.006,VALID,0,VALID,99.1165,VALID,-0.101885,VALID,19.8615,VALID,120,VALID,0.226563,
2004-03-19, 02:54:00,VALID,915.993,VALID,0,VALID,99.1101,VALID,-0.0849042,VALID,19.8446,VALID,120,VALID,0.390067,
2004-03-19, 02:55:00,VALID,915.98,VALID,0,VALID,99.0287,VALID,-0.0849042,VALID,19.8488,VALID,85,VALID,0.511719,
2004-03-19, 02:56:00,VALID,915.982,VALID,0,VALID,99.0644,VALID,-0.0849042,VALID,19.8451,VALID,76,VALID,0.423018,
2004-03-19, 02:57:00,VALID,915.984,VALID,0,VALID,99.0351,VALID,-0.101885,VALID,19.8458,VALID,76,VALID,0.260671,
2004-03-19, 02:58:00,VALID,915.981,VALID,0,VALID,99.0059,VALID,-0.0679233,VALID,19.8321,VALID,76,VALID,0.117898,
2004-03-19, 02:59:00,VALID,915.988,VALID,0,VALID,98.9868,VALID,-0.0679233,VALID,19.8192,VALID,76,VALID,0,
2004-03-19, 03:00:00,VALID,915.987,VALID,0,VALID,99.058,VALID,-0.0849042,VALID,19.8192,VALID,76,VALID,0,
2004-03-19, 03:01:00,VALID,915.989,VALID,0,VALID,99.0478,VALID,-0.101885,VALID,19.8167,VALID,76,VALID,0,
2004-03-19, 03:02:00,VALID,915.994,VALID,0,VALID,99.0834,VALID,-0.0849042,VALID,19.8031,VALID,76,VALID,0,
2004-03-19, 03:03:00,VALID,915.989,VALID,0,VALID,99.1343,VALID,-0.101885,VALID,19.7934,VALID,76,VALID,0,
2004-03-19, 03:04:00,VALID,915.988,VALID,0,VALID,99.2284,VALID,-0.0679233,VALID,19.8123,VALID,76,VALID,0,
2004-03-19, 03:05:00,VALID,915.995,VALID,0,VALID,99.2831,VALID,-0.0849042,VALID,19.8155,VALID,76,VALID,0,
2004-03-19, 03:06:00,VALID,916.008,VALID,0,VALID,99.2793,VALID,-0.101885,VALID,19.816,VALID,76,VALID,0,
2004-03-19, 03:07:00,VALID,916.016,VALID,0,VALID,99.0593,VALID,-0.0679233,VALID,19.8001,VALID,76,VALID,0,
2004-03-19, 03:08:00,VALID,916.023,VALID,0,VALID,98.8774,VALID,-0.0849042,VALID,19.7452,VALID,76,VALID,0,
2004-03-19, 03:09:00,VALID,916.023,VALID,0,VALID,98.8685,VALID,-0.101885,VALID,19.7226,VALID,76,VALID,0,
2004-03-19, 03:10:00,VALID,916.008,VALID,0,VALID,98.8164,VALID,-0.0679233,VALID,19.7032,VALID,76,VALID,0,
2004-03-19, 03:11:00,VALID,916.005,VALID,0,VALID,98.9016,VALID,-0.0849042,VALID,19.6938,VALID,76,VALID,0,
2004-03-19, 03:12:00,VALID,916.004,VALID,0,VALID,99.2144,VALID,-0.0849042,VALID,19.7154,VALID,76,VALID,0.195313,
2004-03-19, 03:13:00,VALID,916.001,VALID,0,VALID,99.4318,VALID,-0.101885,VALID,19.781,VALID,76,VALID,0.446801,
2004-03-19, 03:14:00,VALID,915.979,VALID,0,VALID,99.5361,VALID,-0.0679233,VALID,19.8001,VALID,76,VALID,0.574519,
2004-03-19, 03:15:00,VALID,915.964,VALID,0,VALID,99.6747,VALID,-0.0679233,VALID,19.8289,VALID,76,VALID,0.591797,
2004-03-19, 03:16:00,VALID,915.946,VALID,0,VALID,99.6963,VALID,-0.101885,VALID,19.852,VALID,76,VALID,0.583212,
2004-03-19, 03:17:00,VALID,915.937,VALID,0,VALID,99.6913,VALID,-0.0849042,VALID,19.8386,VALID,76,VALID,0.60766,
2004-03-19, 03:18:00,VALID,915.927,VALID,0,VALID,99.648,VALID,-0.0849042,VALID,19.8222,VALID,76,VALID,0.359557,
2004-03-19, 03:19:00,VALID,915.933,VALID,0,VALID,99.5908,VALID,-0.0849042,VALID,19.8095,VALID,76,VALID,0.380345,
2004-03-19, 03:20:00,VALID,915.925,VALID,0,VALID,99.3695,VALID,-0.0849042,VALID,19.7517,VALID,76,VALID,0.363186,
2004-03-19, 03:21:00,VALID,915.907,VALID,0,VALID,99.2462,VALID,-0.101885,VALID,19.6963,VALID,76,VALID,0.529762,
2004-03-19, 03:22:00,VALID,915.882,VALID,0,VALID,99.3441,VALID,-0.0339617,VALID,19.6774,VALID,76,VALID,0.62064,
2004-03-19, 03:23:00,VALID,915.888,VALID,0,VALID,99.3581,VALID,-0.0509425,VALID,19.6674,VALID,76,VALID,0.534598,
2004-03-19, 03:24:00,VALID,915.886,VALID,0,VALID,99.0644,VALID,-0.0849042,VALID,19.5964,VALID,76,VALID,0.383194,
2004-03-19, 03:25:00,VALID,915.9,VALID,0,VALID,98.9537,VALID,-0.101885,VALID,19.5321,VALID,76,VALID,0.403773,
2004-03-19, 03:26:00,VALID,915.904,VALID,0,VALID,98.8253,VALID,-0.0679233,VALID,19.4739,VALID,76,VALID,0.419618,
2004-03-19, 03:27:00,VALID,915.894,VALID,0,VALID,98.8164,VALID,-0.0849042,VALID,19.4359,VALID,76,VALID,0.406436,
2004-03-19, 03:28:00,VALID,915.9,VALID,0,VALID,98.9588,VALID,-0.0849042,VALID,19.4228,VALID,76,VALID,0.399164,
2004-03-19, 03:29:00,VALID,915.948,VALID,0,VALID,99.1915,VALID,-0.101885,VALID,19.4198,VALID,76,VALID,0.333519,
2004-03-19, 03:30:00,VALID,915.97,VALID,0,VALID,99.5616,VALID,-0.101885,VALID,19.4643,VALID,76,VALID,0.451219,
2004-03-19, 03:31:00,VALID,916.002,VALID,0,VALID,99.5094,VALID,-0.0849042,VALID,19.5065,VALID,76,VALID,0.285156,
2004-03-19, 03:32:00,VALID,916.028,VALID,0,VALID,99.086,VALID,-0.0679233,VALID,19.4359,VALID,76,VALID,0.00664063,
2004-03-19, 03:33:00,VALID,916.041,VALID,0,VALID,98.9525,VALID,-0.101885,VALID,19.3483,VALID,76,VALID,0.329397,
2004-03-19, 03:34:00,VALID,916.061,VALID,0,VALID,99.3683,VALID,-0.0509425,VALID,19.3838,VALID,76,VALID,0.308398,
2004-03-19, 03:35:00,VALID,916.07,VALID,0,VALID,99.4013,VALID,-0.0509425,VALID,19.4101,VALID,76,VALID,0.111421,
2004-03-19, 03:36:00,VALID,916.082,VALID,0,VALID,99.4408,VALID,-0.0509425,VALID,19.4031,VALID,76,VALID,0,
2004-03-19, 03:37:00,VALID,916.108,VALID,0,VALID,99.5094,VALID,-0.0509425,VALID,19.4163,VALID,76,VALID,0,
2004-03-19, 03:38:00,VALID,916.129,VALID,0,VALID,99.4942,VALID,-0.0849042,VALID,19.4061,VALID,76,VALID,0,
2004-03-19, 03:39:00,VALID,916.149,VALID,0,VALID,99.4675,VALID,-0.0509425,VALID,19.3868,VALID,76,VALID,0,
2004-03-19, 03:40:00,VALID,916.18,VALID,0,VALID,99.4509,VALID,-0.0849042,VALID,19.384,VALID,76,VALID,0.0381541,
2004-03-19, 03:41:00,VALID,916.197,VALID,0,VALID,99.5209,VALID,-0.0679233,VALID,19.3778,VALID,76,VALID,0.000355114,